This is the latest recevied weather packets stored in our database for station/object EA2FBA-10. If no packets are shown the sender has not sent any weather packets the latest 10 day(s).
| Time | Temp. | Humidity | Pressure | Rain* | Wind** | Luminosity | Snow |
|---|---|---|---|---|---|---|---|
| 1788442877 | 27.22° C | 36% | 960.6 hPa | - | - | - | - |
| 1788442867 | 27.22° C | 36% | 960.6 hPa | - | - | - | - |
| 1788441977 | 27.22° C | 34% | 960.7 hPa | - | - | - | - |
| 1788441966 | 27.22° C | 34% | 960.7 hPa | - | - | - | - |
| 1788441079 | 27.78° C | 35% | 960.8 hPa | - | - | - | - |
| 1788441066 | 27.78° C | 35% | 960.8 hPa | - | - | - | - |
| 1788440177 | 27.22° C | 38% | 961 hPa | - | - | - | - |
| 1788440166 | 27.22° C | 38% | 961 hPa | - | - | - | - |
| 1788439275 | 25° C | 46% | 961 hPa | - | - | - | - |
| 1788439265 | 25° C | 46% | 961 hPa | - | - | - | - |
| 1788438377 | 26.11° C | 43% | 961.2 hPa | - | - | - | - |
| 1788438365 | 26.11° C | 43% | 961.2 hPa | - | - | - | - |
| 1788437479 | 25.56° C | 45% | 961.3 hPa | - | - | - | - |
| 1788437465 | 25.56° C | 45% | 961.3 hPa | - | - | - | - |
| 1788436577 | 25° C | 44% | 961.4 hPa | - | - | - | - |
| 1788436565 | 25° C | 44% | 961.4 hPa | - | - | - | - |
| 1788435677 | 23.89° C | 47% | 961.5 hPa | - | - | - | - |
| 1788435665 | 23.89° C | 47% | 961.5 hPa | - | - | - | - |
| 1788434778 | 22.78° C | 59% | 961.8 hPa | - | - | - | - |
| 1788434765 | 22.78° C | 59% | 961.8 hPa | - | - | - | - |
| 1788433877 | 22.78° C | 60% | 962.4 hPa | - | - | - | - |
| 1788433865 | 22.78° C | 60% | 962.4 hPa | - | - | - | - |
| 1788432977 | 22.22° C | 60% | 962.1 hPa | - | - | - | - |
| 1788432965 | 22.22° C | 60% | 962.1 hPa | - | - | - | - |
| 1788432065 | 22.22° C | 60% | 962.2 hPa | - | - | - | - |
* Rain since midnight (hover to see other rain measurements)
** Current wind speed in m/s (hover to see current wind gust speed)